Location: Ab? ar R?sh Ba?r?
(24.1861°N, 32.8847°E)
Time: 21:35:14
(UTC+00:00)

Milstar 3 Cent rocket - Pass Details

Date: 03 June 2022
Orbit: 706 x 5146 km, 28.3° (Epoch: 02 July)

Event Time Altitude Azimuth Distance (km) Brightness Sun altitude
Rises 18:57:01 0° 285° (WNW) 8,269 8.2 -27.8°
Reaches altitude 10° 19:04:53 10° 276° (W) 6,431 7.3 -29.1°
Maximum altitude 19:18:28 27° 227° (SW) 3,503 5.3 -31.1°
Enters shadow 19:21:48 23° 203° (SSW) 3,250 4.9 -31.6°
